User: anonymous   Login
Location: Narrabri
(30.3170°S, 149.7830°E)
Time: 11:05:13
(UTC+11:00)
Language:

ISS - Orbit

View from above orbital plane
View from above orbital plane
View from above satellite
View from above satellite

Ground track
Ground track

The orbit data is extracted from the following two-line orbital elements,

1 25544U 98067A   17292.52311250  .00016717  00000-0  10270-3 0  9018
2 25544  51.6378 138.5024 0005047  31.8627 328.2830 15.54203870  1088
Epoch (UTC): 19 October 2017 12:33:16
Eccentricity: 0.0005047
inclination: 51.6378°
perigee height: 401 km
apogee height: 408 km
right ascension of ascending node: 138.5024°
argument of perigee: 31.8627°
revolutions per day: 15.54203870
mean anomaly at epoch: 328.2830°
orbit number at epoch: 108

The dashed part of the orbit path shows where the satellite is in the earth's shadow,  

DLR